Time,TemperatureF,DewpointF,PressureIn,WindDirection,WindDirectionDegrees,WindSpeedMPH,WindSpeedGustMPH,Humidity,HourlyPrecipIn,Conditions,Clouds,dailyrainin,SolarRadiationWatts/m^2,SoftwareType,DateUTC
2013-01-26 00:00:00,25.0,19.0,-100.00,NW,315,6.0,-999.0,76,-99.99,,,-99.99,0.000000,,2013-01-26 05:00:00,
2013-01-26 00:42:00,25.0,19.0,-100.00,NW,315,6.0,-999.0,76,-99.99,,,-99.99,0.000000,,2013-01-26 05:42:00,
2013-01-26 00:52:00,25.0,19.0,-100.00,NW,315,6.0,-999.0,76,-99.99,,,-99.99,0.000000,,2013-01-26 05:52:00,
2013-01-26 01:00:00,25.0,18.0,-100.00,NW,315,7.0,-999.0,74,-99.99,,,-99.99,0.000000,,2013-01-26 06:00:00,
2013-01-26 01:42:00,25.0,18.0,-100.00,NW,315,7.0,-999.0,74,-99.99,,,-99.99,0.000000,,2013-01-26 06:42:00,
2013-01-26 01:52:00,25.0,18.0,-100.00,NW,315,7.0,-999.0,74,-99.99,,,-99.99,0.000000,,2013-01-26 06:52:00,
2013-01-26 02:00:00,25.0,17.0,-100.00,NW,315,6.0,-999.0,70,-99.99,,,-99.99,0.000000,,2013-01-26 07:00:00,
2013-01-26 02:42:00,25.0,17.0,-100.00,NW,315,6.0,-999.0,70,-99.99,,,-99.99,0.000000,,2013-01-26 07:42:00,
2013-01-26 02:52:00,25.0,17.0,-100.00,NW,315,6.0,-999.0,70,-99.99,,,-99.99,0.000000,,2013-01-26 07:52:00,
2013-01-26 03:00:00,24.0,17.0,-100.00,WNW,292,6.0,-999.0,74,-99.99,,,-99.99,0.000000,,2013-01-26 08:00:00,
2013-01-26 03:42:00,24.0,17.0,-100.00,WNW,292,6.0,-999.0,74,-99.99,,,-99.99,0.000000,,2013-01-26 08:42:00,
2013-01-26 03:54:00,24.0,17.0,-100.00,WNW,292,6.0,-999.0,74,-99.99,,,-99.99,0.000000,,2013-01-26 08:54:00,
2013-01-26 04:00:00,24.0,19.0,-100.00,WNW,292,6.0,-999.0,80,-99.99,,,-99.99,0.000000,,2013-01-26 09:00:00,
2013-01-26 04:42:00,24.0,19.0,-100.00,WNW,292,6.0,-999.0,80,-99.99,,,-99.99,0.000000,,2013-01-26 09:42:00,
2013-01-26 04:52:00,24.0,19.0,-100.00,WNW,292,6.0,-999.0,80,-99.99,,,-99.99,0.000000,,2013-01-26 09:52:00,
2013-01-26 05:00:00,24.0,17.0,-100.00,NW,315,8.0,-999.0,72,-99.99,,,-99.99,0.000000,,2013-01-26 10:00:00,
2013-01-26 05:42:00,24.0,17.0,-100.00,NW,315,8.0,-999.0,72,-99.99,,,-99.99,0.000000,,2013-01-26 10:42:00,
2013-01-26 05:52:00,24.0,17.0,-100.00,NW,315,8.0,-999.0,72,-99.99,,,-99.99,0.000000,,2013-01-26 10:52:00,
2013-01-26 06:00:00,23.0,15.0,-100.00,NW,315,6.0,-999.0,70,-99.99,,,-99.99,0.000000,,2013-01-26 11:00:00,
2013-01-26 06:42:00,23.0,15.0,-100.00,NW,315,6.0,-999.0,70,-99.99,,,-99.99,0.000000,,2013-01-26 11:42:00,
2013-01-26 06:52:00,23.0,15.0,-100.00,NW,315,6.0,-999.0,70,-99.99,,,-99.99,0.000000,,2013-01-26 11:52:00,
2013-01-26 07:00:00,23.0,14.0,-100.00,WNW,292,7.0,-999.0,67,-99.99,,,-99.99,0.000000,,2013-01-26 12:00:00,
2013-01-26 07:42:00,23.0,14.0,-100.00,WNW,292,7.0,-999.0,67,-99.99,,,-99.99,0.000000,,2013-01-26 12:42:00,
2013-01-26 07:53:00,23.0,14.0,-100.00,WNW,292,7.0,-999.0,67,-99.99,,,-99.99,0.000000,,2013-01-26 12:53:00,
2013-01-26 08:00:00,23.0,15.0,-100.00,WSW,247,3.0,-999.0,69,-99.99,,,-99.99,0.000000,,2013-01-26 13:00:00,
2013-01-26 08:42:00,23.0,15.0,-100.00,WSW,247,3.0,-999.0,69,-99.99,,,-99.99,0.000000,,2013-01-26 13:42:00,
2013-01-26 08:53:00,23.0,15.0,-100.00,WSW,247,3.0,-999.0,69,-99.99,,,-99.99,0.000000,,2013-01-26 13:53:00,
2013-01-26 09:00:00,23.0,15.0,-100.00,NE,45,0.0,-999.0,73,-99.99,,,-99.99,10.440000,,2013-01-26 14:00:00,
2013-01-26 09:43:00,23.0,15.0,-100.00,NE,45,0.0,-999.0,73,-99.99,,,-99.99,10.440000,,2013-01-26 14:43:00,
2013-01-26 09:53:00,23.0,15.0,-100.00,NE,45,0.0,-999.0,73,-99.99,,,-99.99,10.440000,,2013-01-26 14:53:00,
2013-01-26 10:00:00,23.0,17.0,-100.00,NE,45,1.0,-999.0,77,-99.99,,,-99.99,78.879997,,2013-01-26 15:00:00,
2013-01-26 10:43:00,23.0,17.0,-100.00,NE,45,1.0,-999.0,77,-99.99,,,-99.99,78.879997,,2013-01-26 15:43:00,
2013-01-26 10:53:00,23.0,17.0,-100.00,NE,45,1.0,-999.0,77,-99.99,,,-99.99,78.879997,,2013-01-26 15:53:00,
2013-01-26 11:00:00,25.0,18.0,-100.00,East,90,1.0,-999.0,75,-99.99,,,-99.99,179.800003,,2013-01-26 16:00:00,
2013-01-26 11:33:00,25.0,18.0,-100.00,East,90,1.0,-999.0,75,-99.99,,,-99.99,179.800003,,2013-01-26 16:33:00,
2013-01-26 11:43:00,25.0,18.0,-100.00,East,90,1.0,-999.0,75,-99.99,,,-99.99,179.800003,,2013-01-26 16:43:00,
2013-01-26 11:53:00,25.0,18.0,-100.00,East,90,1.0,-999.0,75,-99.99,,,-99.99,179.800003,,2013-01-26 16:53:00,
2013-01-26 12:00:00,27.0,18.0,-100.00,SW,225,0.0,-999.0,69,-99.99,,,-99.99,183.279999,,2013-01-26 17:00:00,
2013-01-26 12:42:00,27.0,18.0,-100.00,SW,225,0.0,-999.0,69,-99.99,,,-99.99,183.279999,,2013-01-26 17:42:00,
2013-01-26 12:53:00,27.0,18.0,-100.00,SW,225,0.0,-999.0,69,-99.99,,,-99.99,183.279999,,2013-01-26 17:53:00,
2013-01-26 13:00:00,29.0,19.0,-100.00,East,90,0.0,-999.0,66,-99.99,,,-99.99,205.320007,,2013-01-26 18:00:00,
2013-01-26 13:42:00,29.0,19.0,-100.00,East,90,0.0,-999.0,66,-99.99,,,-99.99,205.320007,,2013-01-26 18:42:00,
2013-01-26 13:53:00,29.0,19.0,-100.00,East,90,0.0,-999.0,66,-99.99,,,-99.99,205.320007,,2013-01-26 18:53:00,
2013-01-26 14:00:00,27.0,19.0,-100.00,South,180,1.0,-999.0,71,-99.99,,,-99.99,247.080002,,2013-01-26 19:00:00,
2013-01-26 14:43:00,27.0,19.0,-100.00,South,180,1.0,-999.0,71,-99.99,,,-99.99,247.080002,,2013-01-26 19:43:00,
2013-01-26 14:53:00,27.0,19.0,-100.00,South,180,1.0,-999.0,71,-99.99,,,-99.99,247.080002,,2013-01-26 19:53:00,
2013-01-26 15:00:00,28.0,19.0,-100.00,WSW,247,1.0,-999.0,68,0.01,,,-99.99,225.039993,,2013-01-26 20:00:00,
2013-01-26 15:42:00,28.0,19.0,-100.00,WSW,247,1.0,-999.0,68,0.01,,,-99.99,225.039993,,2013-01-26 20:42:00,
2013-01-26 15:52:00,28.0,19.0,-100.00,WSW,247,1.0,-999.0,68,0.01,,,-99.99,225.039993,,2013-01-26 20:52:00,
2013-01-26 16:00:00,26.0,18.0,-100.00,NW,315,1.0,-999.0,71,0.01,,,-99.99,143.839996,,2013-01-26 21:00:00,
2013-01-26 16:32:00,26.0,18.0,-100.00,NW,315,1.0,-999.0,71,0.01,,,-99.99,143.839996,,2013-01-26 21:32:00,
2013-01-26 16:43:00,26.0,18.0,-100.00,NW,315,1.0,-999.0,71,0.01,,,-99.99,143.839996,,2013-01-26 21:43:00,
2013-01-26 16:52:00,26.0,18.0,-100.00,NW,315,1.0,-999.0,71,0.01,,,-99.99,143.839996,,2013-01-26 21:52:00,
2013-01-26 17:00:00,26.0,18.0,-100.00,WNW,292,0.0,-999.0,71,-99.99,,,-99.99,48.720001,,2013-01-26 22:00:00,
2013-01-26 17:42:00,26.0,18.0,-100.00,WNW,292,0.0,-999.0,71,-99.99,,,-99.99,48.720001,,2013-01-26 22:42:00,
2013-01-26 17:52:00,26.0,18.0,-100.00,WNW,292,0.0,-999.0,71,-99.99,,,-99.99,48.720001,,2013-01-26 22:52:00,
2013-01-26 18:00:00,25.0,18.0,-100.00,NW,315,1.0,-999.0,73,-99.99,,,-99.99,9.280000,,2013-01-26 23:00:00,
2013-01-26 18:42:00,25.0,18.0,-100.00,NW,315,1.0,-999.0,73,-99.99,,,-99.99,9.280000,,2013-01-26 23:42:00,
2013-01-26 18:52:00,25.0,18.0,-100.00,NW,315,1.0,-999.0,73,-99.99,,,-99.99,9.280000,,2013-01-26 23:52:00,
2013-01-26 19:00:00,19.0,14.0,-100.00,NNE,22,0.0,-999.0,79,-99.99,,,-99.99,0.000000,,2013-01-27 00:00:00,
2013-01-26 19:42:00,19.0,14.0,-100.00,NNE,22,0.0,-999.0,79,-99.99,,,-99.99,0.000000,,2013-01-27 00:42:00,
2013-01-26 19:52:00,19.0,14.0,-100.00,NNE,22,0.0,-999.0,79,-99.99,,,-99.99,0.000000,,2013-01-27 00:52:00,
2013-01-26 20:00:00,15.0,13.0,-100.00,East,90,0.0,-999.0,90,-99.99,,,-99.99,0.000000,,2013-01-27 01:00:00,
2013-01-26 20:42:00,15.0,13.0,-100.00,East,90,0.0,-999.0,90,-99.99,,,-99.99,0.000000,,2013-01-27 01:42:00,
2013-01-26 20:52:00,15.0,13.0,-100.00,East,90,0.0,-999.0,90,-99.99,,,-99.99,0.000000,,2013-01-27 01:52:00,
2013-01-26 21:00:00,14.0,12.0,-100.00,East,90,0.0,-999.0,90,-99.99,,,-99.99,0.000000,,2013-01-27 02:00:00,
2013-01-26 21:42:00,14.0,12.0,-100.00,East,90,0.0,-999.0,90,-99.99,,,-99.99,0.000000,,2013-01-27 02:42:00,
2013-01-26 21:52:00,14.0,12.0,-100.00,East,90,0.0,-999.0,90,-99.99,,,-99.99,0.000000,,2013-01-27 02:52:00,
2013-01-26 22:00:00,17.0,15.0,-100.00,SE,135,0.0,-999.0,91,-99.99,,,-99.99,0.000000,,2013-01-27 03:00:00,
2013-01-26 22:42:00,17.0,15.0,-100.00,SE,135,0.0,-999.0,91,-99.99,,,-99.99,0.000000,,2013-01-27 03:42:00,
2013-01-26 22:52:00,17.0,15.0,-100.00,SE,135,0.0,-999.0,91,-99.99,,,-99.99,0.000000,,2013-01-27 03:52:00,
2013-01-26 23:00:00,17.0,15.0,-100.00,ESE,112,0.0,-999.0,90,-99.99,,,-99.99,0.000000,,2013-01-27 04:00:00,
2013-01-26 23:32:00,17.0,15.0,-100.00,ESE,112,0.0,-999.0,90,-99.99,,,-99.99,0.000000,,2013-01-27 04:32:00,
2013-01-26 23:42:00,17.0,15.0,-100.00,ESE,112,0.0,-999.0,90,-99.99,,,-99.99,0.000000,,2013-01-27 04:42:00,
2013-01-26 23:52:00,17.0,15.0,-100.00,ESE,112,0.0,-999.0,90,-99.99,,,-99.99,0.000000,,2013-01-27 04:52:00,